Quillayute, WA

6:20 PM PDT on May 25, 2017 (GMT -0700)
Quillayute

Weather History for KUIL - April, 2013

Change the Weather History Date:

Sunday, April 21, 2013

  Actual Average Record
Temperature  
Mean Temperature 46 °F 47 °F  
Max Temperature 54 °F 56 °F 75 °F (1982)
Min Temperature 38 °F 39 °F 28 °F (1971)
Degree Days  
Heating Degree Days 19 18  
Month to date heating degree days 347 396  
Since 1 July heating degree days 4623 4889  
Cooling Degree Days 0 0  
Month to date cooling degree days 0 0  
Year to date cooling degree days 0 0  
Moisture  
Dew Point 42 °F    
Average Humidity 76    
Maximum Humidity 92    
Minimum Humidity 59    
Precipitation  
Precipitation 0.02 in 0.26 in 1.02 in (1981)
Month to date precipitation 9.24 5.83  
Year to date precipitation 47.34 41.62  
Sea Level Pressure  
Sea Level Pressure 30.28 in    
Wind  
Wind Speed 5 mph (NW)    
Max Wind Speed 13 mph    
Max Gust Speed 18 mph    
Visibility 6 miles    
Events Fog , Rain    
T = Trace of Precipitation, MM = Missing Value Source: NWS Daily Summary

Daily Weather History Graph

Daily Weather History Graph

Search for Another Location

Airport or City:

Trip Planner

Search our weather history database for the weather conditions in past years. The results will help you decide how hot, cold, wet, or windy it might be!

Date:

Astronomy

Apr. 21, 2013 Rise Set
Actual Time 6:17 AM PDT 8:17 PM PDT
Civil Twilight 5:43 AM PDT 8:51 PM PDT
Nautical Twilight 5:02 AM PDT 9:32 PM PDT
Astronomical Twilight 4:16 AM PDT 10:18 PM PDT
Moon 3:51 PM PDT (4/21) 4:01 AM PDT (4/21)
Length of Visible Light 15h 07m
Length of Day
14h 00m
Waxing Gibbous, 81% of the Moon is Illuminated
Apr 21
Waxing Gibbous
Apr 25
Full
May 2
Last Quarter
May 9
New
May 17
First Quarter

Hourly Weather History & Observations

Time (PDT) Temp. Windchill Dew Point Humidity Pressure Visibility Wind Dir Wind Speed Gust Speed Precip Events Conditions
12:53 AM 46.0 °F - 42.1 °F 86% 30.30 in 7.0 mi Calm Calm - N/A   Overcast
1:07 AM 46.4 °F - 42.8 °F 87% 30.29 in 3.0 mi Calm Calm - 0.00 in Rain Light Rain
1:12 AM 46.4 °F - 42.8 °F 87% 30.29 in 2.5 mi Calm Calm - 0.00 in Rain Light Rain
1:14 AM 46.4 °F - 42.8 °F 87% 30.29 in 2.5 mi Calm Calm - 0.00 in Rain Light Rain
1:34 AM 46.4 °F - 42.8 °F 87% 30.29 in 2.5 mi Calm Calm - 0.01 in Rain Light Rain
1:49 AM 46.4 °F - 42.8 °F 87% 30.29 in 1.5 mi Calm Calm - 0.02 in Rain Light Rain
1:53 AM 46.0 °F - 42.1 °F 86% 30.29 in 2.0 mi Calm Calm - 0.02 in Rain Light Rain
1:58 AM 46.4 °F - 42.8 °F 87% 30.28 in 3.0 mi Calm Calm - 0.00 in   Overcast
2:25 AM 46.4 °F - 42.8 °F 87% 30.28 in 7.0 mi Calm Calm - 0.00 in   Overcast
2:53 AM 46.0 °F - 42.1 °F 86% 30.28 in 3.0 mi Calm Calm - 0.00 in Rain Light Rain
3:08 AM 46.4 °F - 42.8 °F 87% 30.27 in 5.0 mi Calm Calm - 0.00 in   Overcast
3:27 AM 46.4 °F - 42.8 °F 87% 30.27 in 4.0 mi Calm Calm - 0.00 in   Overcast
3:38 AM 46.4 °F - 42.8 °F 87% 30.27 in 4.0 mi Calm Calm - 0.00 in   Overcast
3:49 AM 44.6 °F 43.1 °F 42.8 °F 93% 30.27 in 2.0 mi ESE 3.5 mph - 0.00 in   Overcast
3:53 AM 45.0 °F 43.5 °F 42.1 °F 90% 30.27 in 2.5 mi ESE 3.5 mph - 0.00 in   Mostly Cloudy
4:00 AM 44.6 °F - 42.8 °F 93% 30.27 in 8.0 mi Calm Calm - N/A   Mostly Cloudy
4:13 AM 44.6 °F - 42.8 °F 93% 30.27 in 7.0 mi Calm Calm - N/A   Mostly Cloudy
4:18 AM 44.6 °F - 42.8 °F 93% 30.27 in 5.0 mi Calm Calm - N/A   Mostly Cloudy
4:53 AM 45.0 °F - 42.1 °F 90% 30.27 in 3.0 mi Calm Calm - N/A   Overcast
4:58 AM 44.6 °F - 42.8 °F 93% 30.27 in 2.0 mi Calm Calm - N/A   Overcast
5:03 AM 44.6 °F - 42.8 °F 93% 30.26 in 1.2 mi Calm Calm - N/A   Overcast
5:10 AM 44.6 °F - 42.8 °F 93% 30.26 in 1.0 mi Calm Calm - N/A   Overcast
5:21 AM 44.6 °F - 42.8 °F 93% 30.26 in 0.8 mi Calm Calm - N/A   Overcast
5:38 AM 44.6 °F - 42.8 °F 93% 30.26 in 1.5 mi Calm Calm - N/A   Overcast
5:53 AM 45.0 °F - 42.1 °F 90% 30.26 in 2.0 mi Calm Calm - N/A   Overcast
6:01 AM 44.6 °F - 42.8 °F 93% 30.26 in 7.0 mi Calm Calm - N/A   Overcast
6:21 AM 44.6 °F - 41.0 °F 87% 30.26 in 6.0 mi Calm Calm - N/A   Overcast
6:27 AM 44.6 °F - 41.0 °F 87% 30.26 in 6.0 mi Calm Calm - N/A   Overcast
6:40 AM 44.6 °F - 41.0 °F 87% 30.26 in 1.2 mi Calm Calm - N/A   Mostly Cloudy
6:46 AM 44.6 °F - 41.0 °F 87% 30.26 in 0.2 mi Calm Calm - N/A Fog Fog
6:53 AM 44.1 °F - 39.9 °F 85% 30.27 in 0.2 mi Calm Calm - N/A Fog Fog
7:03 AM 44.6 °F - 41.0 °F 87% 30.26 in 0.2 mi Calm Calm - N/A Fog Fog
7:19 AM 44.6 °F - 42.8 °F 93% 30.26 in 0.2 mi Calm Calm - N/A Fog Fog
7:53 AM 45.0 °F - 42.1 °F 90% 30.27 in 0.2 mi Calm Calm - N/A Fog Fog
8:11 AM 46.4 °F - 42.8 °F 87% 30.27 in 1.0 mi Calm Calm - N/A   Mist
8:14 AM 46.4 °F - 42.8 °F 87% 30.27 in 2.5 mi Calm Calm - N/A   Mostly Cloudy
8:21 AM 46.4 °F - 44.6 °F 93% 30.27 in 7.0 mi Calm Calm - N/A   Mostly Cloudy
8:30 AM 46.4 °F - 42.8 °F 87% 30.27 in 8.0 mi Calm Calm - N/A   Scattered Clouds
8:53 AM 48.9 °F - 42.1 °F 77% 30.27 in 8.0 mi West 5.8 mph - N/A   Mostly Cloudy
9:53 AM 50.0 °F - 39.9 °F 68% 30.27 in 7.0 mi West 9.2 mph - N/A   Overcast
10:53 AM 50.0 °F - 41.0 °F 71% 30.27 in 7.0 mi West 8.1 mph - 0.00 in   Overcast
11:27 AM 51.8 °F - 42.8 °F 71% 30.27 in 7.0 mi WNW 6.9 mph - N/A   Overcast
11:49 AM 50.0 °F - 42.8 °F 76% 30.28 in 7.0 mi West 10.4 mph - N/A   Overcast
11:53 AM 51.1 °F - 42.1 °F 71% 30.28 in 8.0 mi West 8.1 mph - N/A   Overcast
12:14 PM 51.8 °F - 39.2 °F 62% 30.27 in 8.0 mi West 8.1 mph - N/A   Overcast
12:30 PM 51.8 °F - 39.2 °F 62% 30.28 in 8.0 mi West 11.5 mph - N/A   Overcast
12:40 PM 51.8 °F - 39.2 °F 62% 30.28 in 8.0 mi WNW 11.5 mph 17.3 mph N/A   Overcast
12:53 PM 53.1 °F - 39.9 °F 61% 30.28 in 8.0 mi NNW 8.1 mph - N/A   Overcast
1:29 PM 53.6 °F - 39.2 °F 58% 30.28 in 8.0 mi WNW 9.2 mph - N/A   Overcast
1:51 PM 51.8 °F - 41.0 °F 67% 30.28 in 5.0 mi NW 9.2 mph - 0.00 in Rain Light Rain
1:53 PM 50.0 °F - 42.1 °F 74% 30.29 in 4.0 mi NW 8.1 mph - 0.00 in Rain Light Rain
2:03 PM 50.0 °F - 42.8 °F 76% 30.29 in 4.0 mi WNW 5.8 mph - 0.00 in Rain Light Rain
2:11 PM 51.8 °F - 44.6 °F 76% 30.29 in 8.0 mi Variable 3.5 mph - 0.00 in   Overcast
2:53 PM 53.1 °F - 43.0 °F 69% 30.29 in 8.0 mi West 9.2 mph - 0.00 in   Mostly Cloudy
3:53 PM 52.0 °F - 42.1 °F 69% 30.29 in 8.0 mi West 10.4 mph - N/A   Mostly Cloudy
4:09 PM 51.8 °F - 42.8 °F 71% 30.29 in 8.0 mi WNW 9.2 mph - N/A   Overcast
4:18 PM 53.6 °F - 42.8 °F 67% 30.29 in 8.0 mi WNW 10.4 mph - N/A   Overcast
4:34 PM 51.8 °F - 42.8 °F 71% 30.29 in 8.0 mi NW 8.1 mph - N/A   Overcast
4:53 PM 53.1 °F - 41.0 °F 64% 30.30 in 9.0 mi NNW 9.2 mph - N/A   Overcast
5:19 PM 53.6 °F - 42.8 °F 67% 30.30 in 9.0 mi NW 9.2 mph - N/A   Overcast
5:49 PM 53.6 °F - 42.8 °F 67% 30.29 in 9.0 mi WNW 8.1 mph 16.1 mph 0.00 in   Overcast
5:53 PM 54.0 °F - 43.0 °F 66% 30.30 in 9.0 mi WNW 9.2 mph - 0.00 in   Overcast
6:20 PM 50.0 °F - 42.8 °F 76% 30.30 in 8.0 mi WNW 8.1 mph - N/A   Scattered Clouds
6:53 PM 50.0 °F - 42.1 °F 74% 30.31 in 9.0 mi North 6.9 mph - N/A   Partly Cloudy
7:30 PM 50.0 °F - 41.0 °F 71% 30.32 in 9.0 mi ENE 5.8 mph - N/A   Mostly Cloudy
7:53 PM 48.0 °F - 39.0 °F 71% 30.33 in 8.0 mi ENE 5.8 mph - N/A   Mostly Cloudy
8:53 PM 44.1 °F - 37.9 °F 79% 30.33 in 10.0 mi Calm Calm - N/A   Clear
9:53 PM 43.0 °F 40.3 °F 39.0 °F 86% 30.36 in 9.0 mi North 4.6 mph - N/A   Clear
10:53 PM 43.0 °F 38.2 °F 37.9 °F 82% 30.37 in 10.0 mi North 8.1 mph - N/A   Clear
11:53 PM 41.0 °F 36.4 °F 37.0 °F 86% 30.38 in 9.0 mi North 6.9 mph - N/A   Clear